STARLINK-34108

Last updated on Mon Oct 20 2025 00:02:07 GMT+0000 (Coordinated Universal Time)

1 65872U 25223U 25292.25002315 -.01907109 00000+0 -21795-1 0 9993 2 65872 53.1596 234.9380 0001334 87.7070 40.2254 15.64688372 3637
UTC large
Height (km)
Speed (km/s)
/
Latitude / Longitude
Inclination (degrees)
Orbital Period (minutes)
Azimuth
Elevation
Range (km)
Doppler Factor

Next 0 passes for location: London (51.5072 / 0.1276)

Sorry there are no passes over London.